IUS R/B(1), 15544

Orbit data source: Space-Track

IUS R/B(1), 15544 is space debris in HEO originally from a launch on Thu, 24 Jan 1985 UTC launched from the Air Force Eastern Test Range (AFETR). Debris objects in space refer to the collection of defunct objects orbiting the Earth. Examples of debris include non-operational satellites, rocket bodies, and fragments generated from explosions, collisions, or faulty payload assembly.

Loading next visibility...
Identifier
15544, 1985-010C
Orbit
HEO
Country
Flag of USUS
Related business
Manufacturer
UTC CSD
Mission
Spacecraft
Bus & Motor
ORBUS 21, Unknown motor
Mass
1,164 kg wet, ~1,164 kg dry
Launch date (UTC)
1985-01-24 (41 years ago)
Launch vehicle
Unknown
Launch site
Air Force Eastern Test Range (AFETR)
Object type
Payload
Rocket body
Debris
Shape & HBR
Unknown
Radar Cross Section
Large (>1 m²)

Expand to show TLE details & history
Last TLE update: 5 days ago

TLE from 5 days ago
0 IUS R/B(1)
1 15544U 85010C   26155.11948380  .00000351  00000-0  39718-3 0  9996
2 15544  27.8471  43.3465 6826117 306.3592   8.4178  2.83500391 71731
Epoch: 2026-06-04T02:52Z
TLE epoch observation values (Epoch: 2026-06-04T02:52:03.400Z)
Latitude
0.00072°
Longitude
107.75648°
Altitude
1,664.398 km
Speed
8.956 km/s
True Right ascension
02h 53m 21s
True Declination
0° 00' 03"
Sunlit
Object was in daylight at epoch
Visualization orbit readout
Latitude
Unknown
Longitude
Unknown
Altitude
Unknown
Speed
Unknown
Apparent Right ascension
Unknown
Apparent Declination
Unknown
Sunlit
N/A
Visualization observer readout
Local Sidereal Time
15:48:58
Azimuth
Unknown
Elevation
Unknown
Doppler factor
Unknown
Orbital elements
Apogee altitude
29,110.641 km
Perigee altitude
316.053 km
Semi-major axis
21,091.484 km
Eccentricity
0.68261
Inclination
27.8471°
RAAN
43.3465°
Arg. of periapsis
306.3592°
True anomaly
53.81571°
Mean anomaly
8.4178°
Eccentric anomaly
24.86017°
Mean motion
0.70857 °/min
Orbital period
508.07 mins
BSTAR
0.00039718
Loading maneuver chart data...
Computing Atmospheric mass density...
Loading historical data...
Loading historical data...
Loading historical data...
Loading historical data...
Loading historical data...
Loading historical data...
Loading historical data...
Other satellites on launch #10 in the year 1985 (1985-01-24 UTC)

Documentation

Showing up to 5 results
|